Zurück zum Katalog

STARLINK-30239

AktivKommunikationVLEO
NORAD 57291·PAYLOAD·🇺🇸 United States

Gestartet Jul 10, 2023 von Cape Canaveral Space Force Station

Loading…

Nächste Überflüge (nächste 24 Stunden)

TLE

AktuellSource: CelesTrak SupGP

Epoche: Sep 14, 2026, 22:33 UTC

1 57291C 23096B   26257.94006944  .00211650  00000+0  24487-2 0  2570
2 57291  42.9996 227.9862 0001574 270.9919 120.0225 15.60837373    11

Verfolge STARLINK-30239 in Echtzeit mit AllMySat

Download on the App Store